Regional Weather Roundup
Issued by NWS

Home | Current Version | Previous Version | Graphics & Text | Print | Product List | Glossary On
Versions: 1 2 3 4 5 6 7 8 9 10 11 12 13 14 15 16 17 18 19 20 21 22 23 24 25 26 27 28 29 30 31 32 33 34 35 36 37 38 39 40 41 42 43 44 45 46 47 48 49 50
250
ASUS43 KLSX 232310
RWRMO

WEATHER SUMMARY FOR MISSOURI
NATIONAL WEATHER SERVICE SPRINGFIELD MO
600 PM CDT TUE AUG 23 2016

NOTE: "FAIR" INDICATES FEW OR NO CLOUDS BELOW 12,000 FEET WITH NO
       SIGNIFICANT WEATHER AND/OR OBSTRUCTIONS TO VISIBILITY.
       CURRENT SKY AND/OR WEATHER CONDITIONS ARE NOT AVAILABLE FOR
       CHILLICOTHE AND FARMINGTON.

MOZ001>031-035>038-043-044-053-054-240000-
...NORTHERN AND WESTERN MISSOURI...

CITY           SKY/WX    TMP DP  RH WIND       PRES   REMARKS
KANSAS CTY INT PTSUNNY   86  71  60 S21G28    29.94F HX  91
KANSAS C DTWN  PTSUNNY   85  72  65 S13G23    29.94F HX  91
LEE`S SUMMIT   MOSUNNY   84  72  67 S16G29    29.97F
ST JOSEPH      MOSUNNY   86  72  62 S21G29    29.90F HX  92
CHILLICOTHE      N/A     80  73  79 S8        29.99S
KIRKSVILLE     CLOUDY    76  72  87 S13       30.03F

$$
MOZ066>068-077>081-088>096-101>105-240000-
...SOUTHWEST MISSOURI...

CITY           SKY/WX    TMP DP  RH WIND       PRES   REMARKS
SPRINGFIELD    CLOUDY    84  70  62 S13       30.07F
JOPLIN         MOSUNNY   85  71  63 S17       30.02S HX  90
BRANSON        CLOUDY    82  72  69 S6        30.11F

$$
MOZ032>034-039>042-045>050-055>058-069>072-240000-
...CENTRAL MISSOURI...

CITY           SKY/WX    TMP DP  RH WIND       PRES   REMARKS
COLUMBIA       LGT RAIN  76  73  91 S9        30.05F
JEFFERSON CITY CLOUDY    76  73  91 SE6       30.04F
ROLLA          CLOUDY    75  73  93 SE8       30.08F
SEDALIA        PTSUNNY   82  74  76 S16       30.03F
WHITEMAN AFB   MOSUNNY   82  78  85 S13G21    30.00F HX  91
OSAGE BEACH    CLOUDY    79  75  87 SE6       30.06F

$$
MOZ051-052-059>065-240000-
...EAST CENTRAL MISSOURI...

CITY           SKY/WX    TMP DP  RH WIND       PRES   REMARKS
ST LOUIS INTL  NOT AVBL
SPIRIT OF STL  CLOUDY    76  73  91 MISG      30.08F
ST CHARLES     CLOUDY    75  72  90 SE6       30.09S

$$
MOZ072>076-082>087-097>100-106>115-240000-
...SOUTH CENTRAL AND SOUTHEAST MISSOURI...

CITY           SKY/WX    TMP DP  RH WIND       PRES   REMARKS
CAPE GIRARDEAU CLOUDY    81  72  74 S6        30.14R
FARMINGTON     CLOUDY    76  73  91 SE3       30.15F
POPLAR BLUFF   PTSUNNY   82  75  79 S5        30.12F
WEST PLAINS    MOSUNNY   83  72  69 S7        30.14F

$$




USA.gov is the U.S. government's official web portal to all federal, state and local government web resources and services.